TimeCEST,TemperatureF,Dew PointF,Humidity,Sea Level PressureIn,VisibilityMPH,Wind Direction,Wind SpeedMPH,Gust SpeedMPH,PrecipitationIn,Events,Conditions,WindDirDegrees,DateUTC
12:25 AM,59.0,57.2,94,30.21,3.1,SSW,5.8,-,N/A,Rain,Light Rain,200,2013-10-08 22:25:00
12:55 AM,60.8,59.0,94,30.21,3.7,SSW,6.9,-,N/A,,Overcast,210,2013-10-08 22:55:00
1:25 AM,59.0,57.2,94,30.18,3.1,SSW,8.1,-,N/A,,Partly Cloudy,210,2013-10-08 23:25:00
1:55 AM,59.0,59.0,100,30.18,3.7,SW,9.2,-,N/A,,Mostly Cloudy,220,2013-10-08 23:55:00
2:00 AM,59,58,97,30.19,3,SW,8.9,,,,Mist,220,2013-10-09 00:00:00
2:25 AM,59.0,59.0,100,30.18,3.1,SSW,6.9,-,N/A,,Overcast,210,2013-10-09 00:25:00
2:55 AM,59.0,57.2,94,30.18,3.1,SSW,6.9,-,N/A,,Mostly Cloudy,200,2013-10-09 00:55:00
3:25 AM,59.0,59.0,100,30.15,4.3,SSW,9.2,-,N/A,,Unknown,210,2013-10-09 01:25:00
3:55 AM,59.0,59.0,100,30.15,3.1,SW,9.2,-,N/A,,Overcast,220,2013-10-09 01:55:00
4:25 AM,59.0,59.0,100,30.15,3.7,SW,6.9,-,N/A,,Mostly Cloudy,230,2013-10-09 02:25:00
4:55 AM,59.0,59.0,100,30.12,3.7,SW,8.1,-,N/A,,Mostly Cloudy,220,2013-10-09 02:55:00
5:00 AM,60,59,94,30.14,4,SW,8.9,,,,Mist,230,2013-10-09 03:00:00
5:25 AM,60.8,59.0,94,30.12,3.1,SW,6.9,-,N/A,,Overcast,230,2013-10-09 03:25:00
5:55 AM,60.8,59.0,94,30.12,3.1,SW,6.9,-,N/A,,Overcast,230,2013-10-09 03:55:00
6:25 AM,59.0,57.2,94,30.09,5.6,WNW,5.8,-,N/A,,Overcast,300,2013-10-09 04:25:00
6:55 AM,59.0,55.4,88,30.09,6.2,WNW,4.6,-,N/A,,Mostly Cloudy,290,2013-10-09 04:55:00
7:25 AM,57.2,55.4,94,30.09,6.2,NW,5.8,-,N/A,,Partly Cloudy,320,2013-10-09 05:25:00
7:55 AM,57.2,55.4,94,30.09,6.2,West,3.5,-,N/A,,Overcast,280,2013-10-09 05:55:00
8:00 AM,57,55,89,30.11,17,WNW,4.5,,,,Partly Cloudy,290,2013-10-09 06:00:00
8:25 AM,57.2,53.6,88,30.09,6.2,West,5.8,-,N/A,,Overcast,270,2013-10-09 06:25:00
8:55 AM,57.2,53.6,88,30.09,6.2,West,5.8,-,N/A,,Scattered Clouds,280,2013-10-09 06:55:00
9:25 AM,59.0,53.6,82,30.09,6.2,WNW,5.8,-,N/A,,Mostly Cloudy,290,2013-10-09 07:25:00
9:55 AM,59.0,53.6,82,30.09,6.2,West,5.8,-,N/A,,Mostly Cloudy,280,2013-10-09 07:55:00
10:25 AM,59.0,53.6,82,30.09,6.2,West,9.2,-,N/A,,Mostly Cloudy,280,2013-10-09 08:25:00
10:55 AM,59.0,51.8,77,30.06,6.2,West,8.1,-,N/A,,Scattered Clouds,280,2013-10-09 08:55:00
11:00 AM,59,52,71,30.09,16,West,8.9,,,,Scattered Clouds,280,2013-10-09 09:00:00
11:25 AM,59.0,51.8,77,30.06,6.2,West,9.2,-,N/A,,Unknown,270,2013-10-09 09:25:00
11:55 AM,60.8,51.8,72,30.06,6.2,West,11.5,-,N/A,,Partly Cloudy,260,2013-10-09 09:55:00
12:25 PM,59.0,50.0,72,30.06,6.2,West,12.7,-,N/A,,Mostly Cloudy,270,2013-10-09 10:25:00
12:55 PM,59.0,50.0,72,30.04,6.2,West,11.5,-,N/A,,Scattered Clouds,270,2013-10-09 10:55:00
1:25 PM,59.0,50.0,72,30.04,6.2,WSW,12.7,-,N/A,,Mostly Cloudy,250,2013-10-09 11:25:00
1:55 PM,57.2,48.2,72,30.04,6.2,West,12.7,-,N/A,,Mostly Cloudy,270,2013-10-09 11:55:00
2:00 PM,58,49,64,30.03,17,West,13.4,,,,Partly Cloudy,270,2013-10-09 12:00:00
2:25 PM,59.0,50.0,72,30.01,6.2,West,10.4,-,N/A,,Unknown,270,2013-10-09 12:25:00
2:55 PM,59.0,48.2,67,30.01,6.2,West,11.5,-,N/A,,Mostly Cloudy,270,2013-10-09 12:55:00
3:25 PM,57.2,50.0,77,29.98,6.2,West,12.7,-,N/A,,Mostly Cloudy,270,2013-10-09 13:25:00
3:55 PM,59.0,50.0,72,29.98,6.2,West,11.5,-,N/A,,Scattered Clouds,260,2013-10-09 13:55:00
4:25 PM,57.2,50.0,77,29.95,6.2,West,13.8,-,N/A,,Mostly Cloudy,260,2013-10-09 14:25:00
4:55 PM,57.2,48.2,72,29.95,6.2,West,13.8,-,N/A,,Mostly Cloudy,260,2013-10-09 14:55:00
5:00 PM,58,49,64,29.95,19,West,11.2,,,,Overcast,260,2013-10-09 15:00:00
5:25 PM,57.2,50.0,77,29.92,6.2,WSW,11.5,-,N/A,,Mostly Cloudy,250,2013-10-09 15:25:00
5:55 PM,57.2,50.0,77,29.89,6.2,WSW,9.2,-,N/A,,Mostly Cloudy,240,2013-10-09 15:55:00
6:25 PM,57.2,51.8,82,29.89,6.2,WSW,9.2,-,N/A,Rain,Light Rain,250,2013-10-09 16:25:00
6:55 PM,57.2,50.0,77,29.89,6.2,West,9.2,-,N/A,,Unknown,270,2013-10-09 16:55:00
7:25 PM,57.2,48.2,72,29.86,6.2,West,9.2,-,N/A,,Mostly Cloudy,270,2013-10-09 17:25:00
7:55 PM,57.2,48.2,72,29.86,6.2,West,9.2,-,N/A,,Mostly Cloudy,280,2013-10-09 17:55:00
8:00 PM,55,48,70,29.87,22,West,8.9,,,,Partly Cloudy,270,2013-10-09 18:00:00
8:25 PM,57.2,48.2,72,29.86,6.2,West,10.4,-,N/A,,Mostly Cloudy,270,2013-10-09 18:25:00
8:55 PM,55.4,46.4,72,29.86,6.2,West,12.7,-,N/A,,Mostly Cloudy,270,2013-10-09 18:55:00
9:25 PM,55.4,46.4,72,29.86,6.2,NW,16.1,-,N/A,Rain,Light Rain,320,2013-10-09 19:25:00
9:55 PM,51.8,46.4,82,29.86,6.2,NW,16.1,-,N/A,,Heavy Drizzle,320,2013-10-09 19:55:00
10:25 PM,50.0,46.4,87,29.86,6.2,WNW,5.8,-,N/A,,Unknown,290,2013-10-09 20:25:00
10:55 PM,50.0,46.4,87,29.83,6.2,West,5.8,-,N/A,Rain,Light Rain,280,2013-10-09 20:55:00
11:00 PM,51,46,79,29.85,11,NW,8.9,,,Rain,Light Rain Showers,310,2013-10-09 21:00:00
11:25 PM,50.0,44.6,82,29.83,3.7,NNW,11.5,23.0,N/A,Rain,Rain Showers,340,2013-10-09 21:25:00
11:55 PM,48.2,46.4,93,29.83,6.2,Variable,2.3,-,N/A,Rain,Light Rain Showers,0,2013-10-09 21:55:00